Terminal Aerodrome Forecast
Issued by NWS

Home | Current Version | Previous Version | Text Only | Print | Product List | Glossary On
Versions: 1 2 3 4 5 6 7 8 9 10 11 12 13 14 15 16 17 18 19
000
FTUS44 KLIX 200530
TAFMCB
TAF
KMCB 200530Z 2006/2106 15005KT P6SM SKC
     FM200900 VRB03KT 2SM BR SCT002
      TEMPO 2009/2013 1/4SM FG BKN002
     FM201400 13004KT P6SM BKN020
     FM201600 14007KT P6SM SCT120=

USA.gov is the U.S. government's official web portal to all federal, state and local government web resources and services.